Regional Weather Roundup
Issued by NWS

Home | Current Version | Previous Version | Text Only | Print | Product List | Glossary On
Versions: 1 2 3 4 5 6 7 8 9 10 11 12 13 14 15 16 17 18 19 20 21 22 23 24 25 26 27 28 29 30 31 32 33 34 35 36 37 38 39 40 41 42 43 44 45 46 47 48 49 50
000
ASUS43 KMKX 251921
RWRWI

WISCONSIN REGIONAL WEATHER ROUNDUP
NATIONAL WEATHER SERVICE MILWAUKEE/SULLIVAN WI
100 PM CST THU DEC 25 2014

NOTE: "FAIR" INDICATES FEW OR NO CLOUDS BELOW 12,000 FEET WITH NO
SIGNIFICANT WEATHER AND/OR OBSTRUCTIONS TO VISIBILITY.

WIZ001-002-006>008-014>016-023>028-252000-
NORTHWEST WISCONSIN

CITY           SKY/WX    TMP DP  RH WIND       PRES   REMARKS
SUPERIOR ARPT  CLOUDY    33  29  85 SW5       29.73R WCI  29
ASHLAND        CLOUDY    33  28  81 SW13G21   29.73R WCI  24
HAYWARD        CLOUDY    31  26  82 SW9       29.73R WCI  23
SIREN          CLOUDY    32  28  86 SW8       29.75R WCI  25
CUMBERLAND     LGT SNOW  32  28  86 SW10      29.74S WCI  24
RICE LAKE      LGT SNOW  32  29  88 S8        29.77R WCI  25
CHETEK         LGT SNOW  32  28  87 S7        29.77R WCI  25
LADYSMITH      CLOUDY    32  28  86 S7        29.77R WCI  26
EAU CLAIRE     CLOUDY    33  27  78 S9        29.77S WCI  25
MENOMONIE      CLOUDY    34  29  83 S8        29.78R WCI  27
NEW RICHMOND   CLOUDY    32  30  92 S9        29.75F WCI  25
OSCEOLA        LGT SNOW  32  32 100 S5        29.78S WCI  27
$$

WIZ003>005-009-010-017-018-252000-
NORTH CENTRAL WISCONSIN

CITY           SKY/WX    TMP DP  RH WIND       PRES   REMARKS
MANITOWISH WTR CLOUDY    31  29  94 SW12      29.70S WCI  21
ARBOR VITAE    CLOUDY    33  29  86 SW9G16    29.71R WCI  25
WOODRUFF       CLOUDY    33  29  86 SW9G16    29.71R WCI  25
RHINELANDER    CLOUDY    30  26  85 SW13G20   29.74R WCI  20
EAGLE RIVER    CLOUDY    32  30  92 SW10      29.71R WCI  23
LAND O LAKES   CLOUDY    32  29  90 SW8       29.71R WCI  25
PHILLIPS       CLOUDY    30  26  86 SW9       29.73R WCI  22
TOMAHAWK       CLOUDY    31  27  86 SW3       29.76R
MEDFORD        LGT SNOW  30  28  90 SW8       29.76S WCI  23
MERRILL        CLOUDY    32  28  86 SW8       29.78R WCI  24
$$

WIZ029-030-035-036-043>047-252000-
CENTRAL WISCONSIN

CITY           SKY/WX    TMP DP  RH WIND       PRES   REMARKS
WAUSAU         CLOUDY    32  27  81 SW13      29.77S WCI  22
MOSINEE        CLOUDY    30  28  93 SW9G17    29.80R WCI  22
MARSHFIELD     CLOUDY    33  27  78 SW9       29.78F WCI  25
STEVENS POINT  CLOUDY    32  27  81 SW7       29.81S WCI  25
WAUPACA        CLOUDY    37  29  75 S9        29.82F WCI  30
WAUTOMA        CLOUDY    36  30  79 SW13      29.83S WCI  27
WISC RAPIDS    CLOUDY    34  27  75 SW8       29.82S WCI  27
CAMP DOUGLAS   CLOUDY    35  35  96 S7        29.81S WCI  30
$$

WIZ011>013-019>022-031-037>040-048>050-252000-
NORTHEAST WISCONSIN

CITY           SKY/WX    TMP DP  RH WIND       PRES   REMARKS
ANTIGO         CLOUDY    30  27  86 SW9       29.78R WCI  22
SHAWANO        CLOUDY    36  29  75 SW10      29.83R WCI  28
OCONTO         CLOUDY    35  30  80 SW14      29.81R WCI  26
STURGEON BAY   CLOUDY    36  27  69 SW15G21   29.83R WCI  26
GREEN BAY      CLOUDY    35  29  78 SW13      29.83R WCI  26
MANITOWOC      CLOUDY    36  30  79 SW12      29.85R WCI  28
APPLETON       PTSUNNY   36  30  80 SW16      29.83S WCI  26
CLINTONVILLE   CLOUDY    34  30  86 SW8       29.82R WCI  27
OSHKOSH        CLOUDY    35  29  78 SW8G18    29.85R WCI  29
$$

WIZ032>034-041-042-053>061-252000-
SOUTHWEST WISCONSIN

CITY           SKY/WX    TMP DP  RH WIND       PRES   REMARKS
LA CROSSE      CLOUDY    37  29  72 S9        29.80S WCI  30
SPARTA         CLOUDY    35  29  77 S7        29.82R WCI  30
VIROQUA        CLOUDY    35  33  92 S8        29.79F WCI  28
BOSCOBEL       PTSUNNY   42  30  62 S8        29.83F
PRAIRIE DU CHI PTSUNNY   41  29  62 SE3       29.82F
PLATTEVILLE    MOSUNNY   42  33  73 S5        29.85S
$$

WIZ056-057-062-063-064-067-068-252000-
SOUTH CENTRAL WISCONSIN

CITY           SKY/WX    TMP DP  RH WIND       PRES   REMARKS
REEDSBURG      CLOUDY    36  31  82 SW12      29.83S WCI  27
BARABOO/DELLS  CLOUDY    35  29  78 S9        29.83R WCI  28
LONE ROCK      PTSUNNY   43  30  60 SW10      29.85S
MINERAL POINT  MOSUNNY   41  32  70 S13       29.84R
MADISON        PTSUNNY   39  29  67 SW9G16    29.86S WCI  33
MIDDLETON      PTSUNNY   41  31  67 S10G21    29.85S
WATERTOWN      PTSUNNY   38  31  75 S13G20    29.87R WCI  30
MONROE         MOSUNNY   41  32  70 S18       29.86R
JANESVILLE     MOSUNNY   41  32  70 SW12      29.88F
$$

WIZ051-052-058>065-066-070>072-252000-
SOUTHEAST WISCONSIN

CITY           SKY/WX    TMP DP  RH WIND       PRES   REMARKS
MILWAUKEE      PTSUNNY   40  28  62 SW18      29.90R WCI  31
WAUKESHA       MOSUNNY   36  28  75 SW12G21   29.89F WCI  27
MILWAUKEE/TIMM SUNNY     37  27  65 SW15G23   29.89R WCI  28
RACINE         MOSUNNY   40  29  64 SW16G23   29.92R WCI  31
BURLINGTON     MOSUNNY   37  30  77 S18       29.91R WCI  27
KENOSHA        MOSUNNY   38  30  73 SW15G24   29.92R WCI  29
FOND DU LAC    CLOUDY    35  29  78 SW12G20   29.85R WCI  27
SHEBOYGAN      CLOUDY    36  29  75 SW10      29.85S WCI  28
WEST BEND      CLOUDY    36  28  75 SW9       29.86R WCI  29
JUNEAU         CLOUDY    37  31  79 S14G20    29.87S WCI  28
$$

LSZ147-162-252000-
LAKE SUPERIOR

STATION/POSITION TIME  TEMP    WIND        PRES    WAVE
                       AIR SEA DIR/SP/G            HT/PER
                 (UTC) (F)     (DEG/KT/KT) (MB)    (FT/S)
DEVILS ISLAND    1900   34     240/ 20/ 23 1006.6R
PORT WING        1800   34     230/  8/ 12 1006.4R
SAXON HARBOR     1800   35     210/  5/ 10 1006.1R
$$

LMZ867-665-643>646-252000-
LAKE MICHIGAN

STATION/POSITION TIME  TEMP    WIND        PRES    WAVE
                       AIR SEA DIR/SP/G            HT/PER
                 (UTC) (F)     (DEG/KT/KT) (MB)    (FT/S)
CHAMBERS ISLAND  1800   35     200/  8/ 17 1008.8R
NORTHPORT PIER   1900   35     230/  7/ 22 1008.8R
SISTER BAY       1713          250/ 15/ 18   N/A
ALGOMA LAKESHORE 1845          260/ 15/ 22   N/A
KEWAUNEE LAKESHO 1900   35     230/ 10/ 17 1009.6R
SHEBOYGAN LAKESH 1900   36 37  220/ 15/ 17 1011.9R
PORT WASHINGTON  1800   37     250/  9/ 19 1012.2S
MILWAUKEE LAKESH 1900   38     240/ 18/ 22   N/A
KENOSHA   LAKESH 1900   39     240/ 13/ 20 1013.5R
$$

TC  - TEMPERATURE IN CELSIUS
VSB - VISIBILITY IN STATUTE MILES
WCI - WIND CHILL INDEX
HX  - HEAT INDEX



USA.gov is the U.S. government's official web portal to all federal, state and local government web resources and services.